Regional Weather Roundup
Issued by NWS Newport/Morehead, NC

Home | Current Version | Previous Version | Text Only | Print | Product List | Glossary On
Versions: 1 2 3 4 5 6 7 8 9 10 11 12 13 14 15 16 17 18 19 20 21 22 23 24 25 26 27 28 29 30 31 32 33 34 35 36 37 38 39 40 41 42 43 44 45
000
ASUS42 KMHX 242210
RWRMHX
WEATHER ROUNDUP FOR EASTERN NORTH CAROLINA
NATIONAL WEATHER SERVICE NEWPORT/MOREHEAD CITY NC
600 PM EDT THU APR 24 2014

NOTE: "FAIR" INDICATES FEW OR NO CLOUDS BELOW 12,000 FEET
WITH NO SIGNIFICANT WEATHER AND/OR OBSTRUCTIONS TO VISIBILITY

NCZ015>017-031-032-045>047-102-103-242300-
NORTH COAST

CITY           SKY/WX    TMP DP  RH WIND       PRES   REMARKS
EDENTON        MOSUNNY   67  30  25 S3        30.01F
ELIZABETH CITY MOSUNNY   68  26  20 N5        30.01S
KITTY HAWK     PTCLDY    56  33  42 E5        30.02S
MANTEO         MOSUNNY   56  42  57 S10       30.03F

$$

NCZ045>047-081-094-103-104-242300-
CENTRAL COAST

CITY           SKY/WX    TMP DP  RH WIND       PRES   REMARKS
FRISCO         SUNNY     59  42  53 SE8       30.05R
SWANQUARTER      N/A     68 N/A N/A W5        29.97S

$$

NCZ095-097-098-100-101-242300-
SOUTHERN COAST

CITY           SKY/WX    TMP DP  RH WIND       PRES   REMARKS
BEAUFORT       SUNNY     62  41  46 SE9       30.04R
CEDAR ISLAND     N/A     63 N/A N/A N2        30.06S
JACKSONVILLE   SUNNY     65  43  44 SE10      30.03R
NEWPORT          N/A     63  45  51 SE7         N/A
PINEY ISLAND   CLEAR     65  39  38 SE6       30.03R
WILMINGTON     SUNNY     67  43  41 SE8       30.03R


$$

NCZ011>013-027>030-043-044-078>080-089-090>093-098-242300-
COASTAL PLAIN

CITY           SKY/WX    TMP DP  RH WIND       PRES   REMARKS
AHOSKIE        MOSUNNY   67  31  26 CALM      30.01S
CLINTON        SUNNY     73  41  31 CALM      30.01S
ELIZABETHTOWN  SUNNY     74  39  27 S6        30.01R
GOLDSBORO      SUNNY     70  31  23 SW5       30.00S
GREENVILLE     SUNNY     66  34  30 SW3       30.03S
HAVELOCK       MOSUNNY   65  42  43 S9        30.04R
KENANSVILLE    SUNNY     71  31  23 CALM      30.02S
KINSTON        SUNNY     70  30  23 CALM      30.02S
NEW BERN       SUNNY     71  34  25 SE7       30.02S
RICHLANDS      SUNNY     73  66  78 S10       30.02R
ROANOKE RAPIDS NOT AVBL
ROCKY MOUNT    SUNNY     69  33  26 S5        30.01S
WASHINGTON     SUNNY     68  12  11 CALM      30.02S
WHITEVILLE     SUNNY     74  46  36 S7        30.00S

$$

AMZ130-135-150-152-154-156-158-170-250-252-270-ANZ085-086-088-633-658-670-242300-
MARINE OBSERVATIONS

STATION/POSITION TIME  TEMP    WIND        PRES    WAVE   SWELL
                       AIR SEA DIR/SP/G            HT/PER HT/PER
                 (UTC) (F)     (DEG/KT/KT) (MB)    (FT/S) (FT/S)
CHESAPEAKE LIGHT 2100   55     340/  5/  6 1017.3
BUOY 44014       2200   51 50  330/  4/  4 1016.7    4/ 7   3/ 7
DUCK             2200   54 54   80/  7/  8 1015.8
2E DUCK          2200      53                N/A     3/ 8
OREGON INLET     2200   54 58  110/  5/  7 1017.3
BUOY 44095       2200      51                N/A     4/ 8   2/11
HATTERAS CG      2200   58 62  150/  4/  6 1017.5
DIAMOND BUOY     NOT AVBL
CAPE LOOKOUT     2100   58     130/  8/  9 1017.1
BEAUFORT LAB     2200   60 62  160/  7/  9 1016.4
30 SE NEW RIVER  2100   62 70  130/  6/  8 1017.6
5 SE WRIGHTSVILL 2100   61 61  140/ 10/ 12 1016.6
FRYING PAN BUOY  2200   66 68  100/ 12/ 14 1016.4    4/ 5   3/10
BUOY 41001       NOT AVBL
BUOY 41002       NOT AVBL
BUOY 41004       2200   72 72   90/ 12/ 14 1015.1    4/ 6   2/ 8

$$



USA.gov is the U.S. government's official web portal to all federal, state and local government web resources and services.